Weather in Cessnock

Australia     32°49′58″S   151°21′19″E
temp.,
°C
wind,
m/s
gust,
m/s
humid.,
%
clouds,
%
prec.,
mm/h
press.,
hPa
HPBL,
m
12 may, wed
wed1201:00+11sw118194 0.0 101917
04:00+11sw118599 0.0 101928
07:00+10sw118967 0.0 102030
10:00+18s126571 0.0 1020579
13:00+22ene115450 0.0 10171248
16:00+18se24773 0.4 1016248
19:00+13s229533 0.1 101837
22:00+12wsw11984 0.9 101823
13 may, thu
thu1301:00+11wsw129919 0.0 101636
04:00+11wsw119945 0.0 101536
07:00+12wnw129790 0.0 1015163
10:00+16nw238441 0.0 1014477
13:00+20nw46510 0.0 10111668
16:00+19nnw37550 0.0 1009397
19:00+13w39690 0.0 1011195
22:00+11wnw24760 0.0 101398
14 may, fri
fri1401:00+9wnw25850 0.0 1012106
04:00+9wnw26870 0.0 1012127
07:00+8wnw26890 0.0 1014134
10:00+15w59500 0.0 10141172
13:00+18w47300 0.0 10131533
16:00+16w37400 0.0 1013707
19:00+11wsw311530 0.0 1016394
22:00+9w310648 0.0 1017332
15 may, sat
sat1501:00+6wnw2679100 0.0 1017131
04:00+6wnw3979100 0.0 1016267
07:00+6wnw311790 0.0 1017343
10:00+13wnw410495 0.0 10171578
13:00+16wsw5113617 0.0 10152405
16:00+13wsw411444 0.0 10171939
19:00+7sw11630 0.0 102111
22:00+5wsw22680 0.0 102332
16 may, sun
sun1601:00+4wsw22710 0.0 102334
04:00+3w21735 0.0 102430
07:00+3wnw22733 0.0 102637
10:00+11nw23440 0.0 1025511
13:00+15nw34370 0.0 10221063
16:00+14nnw26430 0.0 1021340
19:00+7wnw22600 0.0 102325
22:00+5w22690 0.0 102435